Powrót do katalogu

COSMOS 2251 DEB

AktywnyLEO
NORAD 47045·DEBRIS·🇷🇺 Russia

Wystrzelony Jun 16, 1993 z Plesetsk Cosmodrome

Loading…

Następne Przeloty (najbliższe 24 godziny)

TLE

Starzejące sięSource: Space-Track

Epoka: Sep 10, 2026, 02:19 UTC

1 47045U 93036BWZ 26253.09704366  .00000094  00000-0  38710-4 0  9990
2 47045  74.0606   9.2851 0028051  82.5580  92.7421 14.39019571117086

Śledź COSMOS 2251 DEB w czasie rzeczywistym z AllMySat

Download on the App Store